Location: Maccacari
(45.1333°N, 11.1333°E)
Time: 07:55:29
(UTC+00:00)

Cosmos 2279 Rocket - Pass Details

Date: 18 September 2020
Orbit: 963 x 979 km, 82.9° (Epoch: 29 October)

Event Time Altitude Azimuth Distance (km) Brightness Sun altitude
Exits shadow 20:20:51 63° 31° (NNE) 1,089 4.1 -30.4°
Drops below altitude 10° 20:26:06 10° 11° (N) 2,741 6.6 -31.1°
Sets 20:28:38 0° 10° (N) 3,694 7.4 -31.4°
